Year,Month,Day,Hour,Minute,Value (Times are PST for temperature in C)
2015,04,10,00,00,8.10
2015,04,10,00,01,8.10
2015,04,10,00,02,8.10
2015,04,10,00,03,8.10
2015,04,10,00,04,8.10
2015,04,10,00,05,8.10
2015,04,10,00,06,8.00
2015,04,10,00,07,8.00
2015,04,10,00,08,8.00
2015,04,10,00,09,7.90
2015,04,10,00,10,7.90
2015,04,10,00,11,7.90
2015,04,10,00,12,7.90
2015,04,10,00,13,7.90
2015,04,10,00,14,7.90
2015,04,10,00,15,7.90
2015,04,10,00,16,7.80
2015,04,10,00,17,7.80
2015,04,10,00,18,7.80
2015,04,10,00,19,7.80
2015,04,10,00,20,7.80
2015,04,10,00,21,7.80
2015,04,10,00,22,7.80
2015,04,10,00,23,7.70
2015,04,10,00,24,7.70
2015,04,10,00,25,7.70
2015,04,10,00,26,7.70
2015,04,10,00,27,7.70
2015,04,10,00,28,7.60
2015,04,10,00,29,7.60
2015,04,10,00,30,7.60
2015,04,10,00,31,7.60
2015,04,10,00,32,7.50
2015,04,10,00,33,7.50
2015,04,10,00,34,7.50
2015,04,10,00,35,7.40
2015,04,10,00,36,7.40
2015,04,10,00,37,7.40
2015,04,10,00,38,7.40
2015,04,10,00,39,7.40
2015,04,10,00,40,7.40
2015,04,10,00,41,7.40
2015,04,10,00,42,7.40
2015,04,10,00,43,7.40
2015,04,10,00,44,7.40
2015,04,10,00,45,7.40
2015,04,10,00,46,7.40
2015,04,10,00,47,7.40
2015,04,10,00,48,7.40
2015,04,10,00,49,7.30
2015,04,10,00,50,7.30
2015,04,10,00,51,7.30
2015,04,10,00,52,7.30
2015,04,10,00,53,7.30
2015,04,10,00,54,7.30
2015,04,10,00,55,7.30
2015,04,10,00,56,7.30
2015,04,10,00,57,7.30
2015,04,10,00,58,7.30
2015,04,10,00,59,7.20
2015,04,10,01,00,7.20
2015,04,10,01,01,7.20
2015,04,10,01,02,7.20
2015,04,10,01,03,7.20
2015,04,10,01,04,7.20
2015,04,10,01,05,7.20
2015,04,10,01,06,7.10
2015,04,10,01,07,7.10
2015,04,10,01,08,7.10
2015,04,10,01,09,7.10
2015,04,10,01,10,7.10
2015,04,10,01,11,7.10
2015,04,10,01,12,7.10
2015,04,10,01,13,7.00
2015,04,10,01,14,7.00
2015,04,10,01,15,7.00
2015,04,10,01,16,7.00
2015,04,10,01,17,7.00
2015,04,10,01,18,7.00
2015,04,10,01,19,6.90
2015,04,10,01,20,6.90
2015,04,10,01,21,6.90
2015,04,10,01,22,6.90
2015,04,10,01,23,6.90
2015,04,10,01,24,6.90
2015,04,10,01,25,6.90
2015,04,10,01,26,6.80
2015,04,10,01,27,6.80
2015,04,10,01,28,6.80
2015,04,10,01,29,6.80
2015,04,10,01,30,6.80
2015,04,10,01,31,6.80
2015,04,10,01,32,6.80
2015,04,10,01,33,6.80
2015,04,10,01,34,6.80
2015,04,10,01,35,6.80
2015,04,10,01,36,6.80
2015,04,10,01,37,6.80
2015,04,10,01,38,6.80
2015,04,10,01,39,6.80
2015,04,10,01,40,6.70
2015,04,10,01,41,6.70
2015,04,10,01,42,6.70
2015,04,10,01,43,6.70
2015,04,10,01,44,6.70
2015,04,10,01,45,6.70
2015,04,10,01,46,6.70
2015,04,10,01,47,6.60
2015,04,10,01,48,6.60
2015,04,10,01,49,6.60
2015,04,10,01,50,6.60
2015,04,10,01,51,6.60
2015,04,10,01,52,6.60
2015,04,10,01,53,6.60
2015,04,10,01,54,6.50
2015,04,10,01,55,6.50
2015,04,10,01,56,6.50
2015,04,10,01,57,6.50
2015,04,10,01,58,6.40
2015,04,10,01,59,6.40
2015,04,10,02,00,6.40
2015,04,10,02,01,6.40
2015,04,10,02,02,6.30
2015,04,10,02,03,6.30
2015,04,10,02,04,6.30
2015,04,10,02,05,6.30
2015,04,10,02,06,6.30
2015,04,10,02,07,6.30
2015,04,10,02,08,6.20
2015,04,10,02,09,6.20
2015,04,10,02,10,6.20
2015,04,10,02,11,6.20
2015,04,10,02,12,6.20
2015,04,10,02,13,6.20
2015,04,10,02,14,6.20
2015,04,10,02,15,6.20
2015,04,10,02,16,6.20
2015,04,10,02,17,6.20
2015,04,10,02,18,6.20
2015,04,10,02,19,6.10
2015,04,10,02,20,6.10
2015,04,10,02,21,6.10
2015,04,10,02,22,6.10
2015,04,10,02,23,6.10
2015,04,10,02,24,6.10
2015,04,10,02,25,6.10
2015,04,10,02,26,6.00
2015,04,10,02,27,6.00
2015,04,10,02,28,6.00
2015,04,10,02,29,6.00
2015,04,10,02,30,5.90
2015,04,10,02,31,5.90
2015,04,10,02,32,5.90
2015,04,10,02,33,5.90
2015,04,10,02,34,5.80
2015,04,10,02,35,5.80
2015,04,10,02,36,5.80
2015,04,10,02,37,5.80
2015,04,10,02,38,5.80
2015,04,10,02,39,5.80
2015,04,10,02,40,5.70
2015,04,10,02,41,5.70
2015,04,10,02,42,5.70
2015,04,10,02,43,5.70
2015,04,10,02,44,5.70
2015,04,10,02,45,5.70
2015,04,10,02,46,5.70
2015,04,10,02,47,5.70
2015,04,10,02,48,5.70
2015,04,10,02,49,5.70
2015,04,10,02,50,5.70
2015,04,10,02,51,5.70
2015,04,10,02,52,5.70
2015,04,10,02,53,5.70
2015,04,10,02,54,5.70
2015,04,10,02,55,5.70
2015,04,10,02,56,5.60
2015,04,10,02,57,5.60
2015,04,10,02,58,5.60
2015,04,10,02,59,5.60
2015,04,10,03,00,5.60
2015,04,10,03,01,5.60
2015,04,10,03,02,5.60
2015,04,10,03,03,5.60
2015,04,10,03,04,5.60
2015,04,10,03,05,5.60
2015,04,10,03,06,5.60
2015,04,10,03,07,5.60
2015,04,10,03,08,5.50
2015,04,10,03,09,5.50
2015,04,10,03,10,5.50
2015,04,10,03,11,5.40
2015,04,10,03,12,5.40
2015,04,10,03,13,5.40
2015,04,10,03,14,5.40
2015,04,10,03,15,5.30
2015,04,10,03,16,5.30
2015,04,10,03,17,5.30
2015,04,10,03,18,5.30
2015,04,10,03,19,5.30
2015,04,10,03,20,5.30
2015,04,10,03,21,5.20
2015,04,10,03,22,5.20
2015,04,10,03,23,5.20
2015,04,10,03,24,5.20
2015,04,10,03,25,5.20
2015,04,10,03,26,5.20
2015,04,10,03,27,5.20
2015,04,10,03,28,5.20
2015,04,10,03,29,5.10
2015,04,10,03,30,5.10
2015,04,10,03,31,5.10
2015,04,10,03,32,5.10
2015,04,10,03,33,5.10
2015,04,10,03,34,5.10
2015,04,10,03,35,5.10
2015,04,10,03,36,5.00
2015,04,10,03,37,5.00
2015,04,10,03,38,5.00
2015,04,10,03,39,5.00
2015,04,10,03,40,5.00
2015,04,10,03,41,5.00
2015,04,10,03,42,4.90
2015,04,10,03,43,4.90
2015,04,10,03,44,4.90
2015,04,10,03,45,4.90
2015,04,10,03,46,4.90
2015,04,10,03,47,4.90
2015,04,10,03,48,4.90
2015,04,10,03,49,4.90
2015,04,10,03,50,4.90
2015,04,10,03,51,4.90
2015,04,10,03,52,4.90
2015,04,10,03,53,4.90
2015,04,10,03,54,4.90
2015,04,10,03,55,4.90
2015,04,10,03,56,4.90
2015,04,10,03,57,4.90
2015,04,10,03,58,4.90
2015,04,10,03,59,4.90
2015,04,10,04,00,4.90
2015,04,10,04,01,4.90
2015,04,10,04,02,4.90
2015,04,10,04,03,4.90
2015,04,10,04,04,4.90
2015,04,10,04,05,4.90
2015,04,10,04,06,4.90
2015,04,10,04,07,4.80
2015,04,10,04,08,4.80
2015,04,10,04,09,4.80
2015,04,10,04,10,4.80
2015,04,10,04,11,4.80
2015,04,10,04,12,4.80
2015,04,10,04,13,4.80
2015,04,10,04,14,4.80
2015,04,10,04,15,4.80
2015,04,10,04,16,4.80
2015,04,10,04,17,4.80
2015,04,10,04,18,4.80
2015,04,10,04,19,4.80
2015,04,10,04,20,4.80
2015,04,10,04,21,4.80
2015,04,10,04,22,4.80
2015,04,10,04,23,4.70
2015,04,10,04,24,4.70
2015,04,10,04,25,4.70
2015,04,10,04,26,4.70
2015,04,10,04,27,4.70
2015,04,10,04,28,4.70
2015,04,10,04,29,4.70
2015,04,10,04,30,4.60
2015,04,10,04,31,4.60
2015,04,10,04,32,4.60
2015,04,10,04,33,4.60
2015,04,10,04,34,4.60
2015,04,10,04,35,4.60
2015,04,10,04,36,4.60
2015,04,10,04,37,4.60
2015,04,10,04,38,4.50
2015,04,10,04,39,4.50
2015,04,10,04,40,4.50
2015,04,10,04,41,4.50
2015,04,10,04,42,4.50
2015,04,10,04,43,4.50
2015,04,10,04,44,4.40
2015,04,10,04,45,4.40
2015,04,10,04,46,4.40
2015,04,10,04,47,4.40
2015,04,10,04,48,4.40
2015,04,10,04,49,4.40
2015,04,10,04,50,4.40
2015,04,10,04,51,4.40
2015,04,10,04,52,4.40
2015,04,10,04,53,4.40
2015,04,10,04,54,4.40
2015,04,10,04,55,4.40
2015,04,10,04,56,4.40
2015,04,10,04,57,4.40
2015,04,10,04,58,4.40
2015,04,10,04,59,4.40
2015,04,10,05,00,4.40
2015,04,10,05,01,4.40
2015,04,10,05,02,4.40
2015,04,10,05,03,4.50
2015,04,10,05,04,4.50
2015,04,10,05,05,4.50
2015,04,10,05,06,4.50
2015,04,10,05,07,4.50
2015,04,10,05,08,4.50
2015,04,10,05,09,4.50
2015,04,10,05,10,4.50
2015,04,10,05,11,4.50
2015,04,10,05,12,4.50
2015,04,10,05,13,4.50
2015,04,10,05,14,4.50
2015,04,10,05,15,4.40
2015,04,10,05,16,4.40
2015,04,10,05,17,4.40
2015,04,10,05,18,4.40
2015,04,10,05,19,4.40
2015,04,10,05,20,4.40
2015,04,10,05,21,4.40
2015,04,10,05,22,4.40
2015,04,10,05,23,4.30
2015,04,10,05,24,4.30
2015,04,10,05,25,4.30
2015,04,10,05,26,4.30
2015,04,10,05,27,4.30
2015,04,10,05,28,4.30
2015,04,10,05,29,4.20
2015,04,10,05,30,4.20
2015,04,10,05,31,4.20
2015,04,10,05,32,4.20
2015,04,10,05,33,4.20
2015,04,10,05,34,4.20
2015,04,10,05,35,4.20
2015,04,10,05,36,4.10
2015,04,10,05,37,4.10
2015,04,10,05,38,4.10
2015,04,10,05,39,4.10
2015,04,10,05,40,4.10
2015,04,10,05,41,4.10
2015,04,10,05,42,4.00
2015,04,10,05,43,4.00
2015,04,10,05,44,4.00
2015,04,10,05,45,4.00
2015,04,10,05,46,3.90
2015,04,10,05,47,3.90
2015,04,10,05,48,3.90
2015,04,10,05,49,3.90
2015,04,10,05,50,3.90
2015,04,10,05,51,3.90
2015,04,10,05,52,3.90
2015,04,10,05,53,3.90
2015,04,10,05,54,3.90
2015,04,10,05,55,3.90
2015,04,10,05,56,3.90
2015,04,10,05,57,3.80
2015,04,10,05,58,3.80
2015,04,10,05,59,3.80
2015,04,10,06,00,3.80
2015,04,10,06,01,3.80
2015,04,10,06,02,3.80
2015,04,10,06,03,3.80
2015,04,10,06,04,3.80
2015,04,10,06,05,3.80
2015,04,10,06,06,3.70
2015,04,10,06,07,3.70
2015,04,10,06,08,3.70
2015,04,10,06,09,3.70
2015,04,10,06,10,3.70
2015,04,10,06,11,3.70
2015,04,10,06,12,3.70
2015,04,10,06,13,3.70
2015,04,10,06,14,3.70
2015,04,10,06,15,3.70
2015,04,10,06,16,3.70
2015,04,10,06,17,3.70
2015,04,10,06,18,3.70
2015,04,10,06,19,3.70
2015,04,10,06,20,3.70
2015,04,10,06,21,3.70
2015,04,10,06,22,3.70
2015,04,10,06,23,3.70
2015,04,10,06,24,3.70
2015,04,10,06,25,3.70
2015,04,10,06,26,3.70
2015,04,10,06,27,3.70
2015,04,10,06,28,3.70
2015,04,10,06,29,3.70
2015,04,10,06,30,3.70
2015,04,10,06,31,3.70
2015,04,10,06,32,3.70
2015,04,10,06,33,3.70
2015,04,10,06,34,3.70
2015,04,10,06,35,3.70
2015,04,10,06,36,3.70
2015,04,10,06,37,3.70
2015,04,10,06,38,3.70
2015,04,10,06,39,3.70
2015,04,10,06,40,3.70
2015,04,10,06,41,3.70
2015,04,10,06,42,3.70
2015,04,10,06,43,3.70
2015,04,10,06,44,3.70
2015,04,10,06,45,3.70
2015,04,10,06,46,3.70
2015,04,10,06,47,3.70
2015,04,10,06,48,3.70
2015,04,10,06,49,3.70
2015,04,10,06,50,3.60
2015,04,10,06,51,3.60
2015,04,10,06,52,3.70
2015,04,10,06,53,3.60
2015,04,10,06,54,3.70
2015,04,10,06,55,3.60
2015,04,10,06,56,3.60
2015,04,10,06,57,3.60
2015,04,10,06,58,3.60
2015,04,10,06,59,3.60
2015,04,10,07,00,3.60
2015,04,10,07,01,3.60
2015,04,10,07,02,3.60
2015,04,10,07,03,3.60
2015,04,10,07,04,3.60
2015,04,10,07,05,3.60
2015,04,10,07,06,3.60
2015,04,10,07,07,3.60
2015,04,10,07,08,3.60
2015,04,10,07,09,3.60
2015,04,10,07,10,3.60
2015,04,10,07,11,3.70
2015,04,10,07,12,3.70
2015,04,10,07,13,3.70
2015,04,10,07,14,3.70
2015,04,10,07,15,3.70
2015,04,10,07,16,3.70
2015,04,10,07,17,3.70
2015,04,10,07,18,3.80
2015,04,10,07,19,3.80
2015,04,10,07,20,3.80
2015,04,10,07,21,3.80
2015,04,10,07,22,3.90
2015,04,10,07,23,3.90
2015,04,10,07,24,3.90
2015,04,10,07,25,4.00
2015,04,10,07,26,4.00
2015,04,10,07,27,4.10
2015,04,10,07,28,4.10
2015,04,10,07,29,4.10
2015,04,10,07,30,4.10
2015,04,10,07,31,4.20
2015,04,10,07,32,4.20
2015,04,10,07,33,4.20
2015,04,10,07,34,4.20
2015,04,10,07,35,4.30
2015,04,10,07,36,4.30
2015,04,10,07,37,4.30
2015,04,10,07,38,4.40
2015,04,10,07,39,4.40
2015,04,10,07,40,4.40
2015,04,10,07,41,4.40
2015,04,10,07,42,4.50
2015,04,10,07,43,4.50
2015,04,10,07,44,4.50
2015,04,10,07,45,4.60
2015,04,10,07,46,4.60
2015,04,10,07,47,4.60
2015,04,10,07,48,4.60
2015,04,10,07,49,4.70
2015,04,10,07,50,4.70
2015,04,10,07,51,4.70
2015,04,10,07,52,4.70
2015,04,10,07,53,4.70
2015,04,10,07,54,4.80
2015,04,10,07,55,4.80
2015,04,10,07,56,4.80
2015,04,10,07,57,4.80
2015,04,10,07,58,4.80
2015,04,10,07,59,4.80
2015,04,10,08,00,4.90
2015,04,10,08,01,4.90
2015,04,10,08,02,4.90
2015,04,10,08,03,5.00
2015,04,10,08,04,5.00
2015,04,10,08,05,5.00
2015,04,10,08,06,5.10
2015,04,10,08,07,5.10
2015,04,10,08,08,5.10
2015,04,10,08,09,5.10
2015,04,10,08,10,5.20
2015,04,10,08,11,5.20
2015,04,10,08,12,5.20
2015,04,10,08,13,5.30
2015,04,10,08,14,5.30
2015,04,10,08,15,5.30
2015,04,10,08,16,5.40
2015,04,10,08,17,5.40
2015,04,10,08,18,5.40
2015,04,10,08,19,5.50
2015,04,10,08,20,5.50
2015,04,10,08,21,5.60
2015,04,10,08,22,5.60
2015,04,10,08,23,5.60
2015,04,10,08,24,5.70
2015,04,10,08,25,5.70
2015,04,10,08,26,5.80
2015,04,10,08,27,5.80
2015,04,10,08,28,5.80
2015,04,10,08,29,5.90
2015,04,10,08,30,5.90
2015,04,10,08,31,5.90
2015,04,10,08,32,5.90
2015,04,10,08,33,6.00
2015,04,10,08,34,6.00
2015,04,10,08,35,6.10
2015,04,10,08,36,6.10
2015,04,10,08,37,6.10
2015,04,10,08,38,6.20
2015,04,10,08,39,6.20
2015,04,10,08,40,6.20
2015,04,10,08,41,6.20
2015,04,10,08,42,6.30
2015,04,10,08,43,6.30
2015,04,10,08,44,6.30
2015,04,10,08,45,6.40
2015,04,10,08,46,6.40
2015,04,10,08,47,6.50
2015,04,10,08,48,6.50
2015,04,10,08,49,6.60
2015,04,10,08,50,6.60
2015,04,10,08,51,6.70
2015,04,10,08,52,6.70
2015,04,10,08,53,6.70
2015,04,10,08,54,6.70
2015,04,10,08,55,6.80
2015,04,10,08,56,6.80
2015,04,10,08,57,6.80
2015,04,10,08,58,6.90
2015,04,10,08,59,6.90
2015,04,10,09,00,6.90
2015,04,10,09,01,7.00
2015,04,10,09,02,7.00
2015,04,10,09,03,7.00
2015,04,10,09,04,7.10
2015,04,10,09,05,7.10
2015,04,10,09,06,7.10
2015,04,10,09,07,7.20
2015,04,10,09,08,7.20
2015,04,10,09,09,7.20
2015,04,10,09,10,7.30
2015,04,10,09,11,7.30
2015,04,10,09,12,7.40
2015,04,10,09,13,7.40
2015,04,10,09,14,7.40
2015,04,10,09,15,7.50
2015,04,10,09,16,7.60
2015,04,10,09,17,7.60
2015,04,10,09,18,7.70
2015,04,10,09,19,7.70
2015,04,10,09,20,7.70
2015,04,10,09,21,7.80
2015,04,10,09,22,7.80
2015,04,10,09,23,7.80
2015,04,10,09,24,7.90
2015,04,10,09,25,7.90
2015,04,10,09,26,7.90
2015,04,10,09,27,8.00
2015,04,10,09,28,8.00
2015,04,10,09,29,8.10
2015,04,10,09,30,8.10
2015,04,10,09,31,8.20
2015,04,10,09,32,8.20
2015,04,10,09,33,8.20
2015,04,10,09,34,8.20
2015,04,10,09,35,8.30
2015,04,10,09,36,8.30
2015,04,10,09,37,8.30
2015,04,10,09,38,8.40
2015,04,10,09,39,8.40
2015,04,10,09,40,8.40
2015,04,10,09,41,8.40
2015,04,10,09,42,8.50
2015,04,10,09,43,8.50
2015,04,10,09,44,8.50
2015,04,10,09,45,8.50
2015,04,10,09,46,8.60
2015,04,10,09,47,8.60
2015,04,10,09,48,8.60
2015,04,10,09,49,8.60
2015,04,10,09,50,8.60
2015,04,10,09,51,8.60
2015,04,10,09,52,8.60
2015,04,10,09,53,8.60
2015,04,10,09,54,8.70
2015,04,10,09,55,8.70
2015,04,10,09,56,8.70
2015,04,10,09,57,8.70
2015,04,10,09,58,8.80
2015,04,10,09,59,8.80
2015,04,10,10,00,8.80
2015,04,10,10,01,8.80
2015,04,10,10,02,8.80
2015,04,10,10,03,8.90
2015,04,10,10,04,8.90
2015,04,10,10,05,8.90
2015,04,10,10,06,8.90
2015,04,10,10,07,8.90
2015,04,10,10,08,8.90
2015,04,10,10,09,8.90
2015,04,10,10,10,8.90
2015,04,10,10,11,8.90
2015,04,10,10,12,9.00
2015,04,10,10,13,9.00
2015,04,10,10,14,9.00
2015,04,10,10,15,9.10
2015,04,10,10,16,9.10
2015,04,10,10,17,9.10
2015,04,10,10,18,9.10
2015,04,10,10,19,9.20
2015,04,10,10,20,9.20
2015,04,10,10,21,9.20
2015,04,10,10,22,9.20
2015,04,10,10,23,9.30
2015,04,10,10,24,9.30
2015,04,10,10,25,9.30
2015,04,10,10,26,9.30
2015,04,10,10,27,9.30
2015,04,10,10,28,9.30
2015,04,10,10,29,9.40
2015,04,10,10,30,9.40
2015,04,10,10,31,9.40
2015,04,10,10,32,9.40
2015,04,10,10,33,9.40
2015,04,10,10,34,9.40
2015,04,10,10,35,9.50
2015,04,10,10,36,9.50
2015,04,10,10,37,9.50
2015,04,10,10,38,9.50
2015,04,10,10,39,9.50
2015,04,10,10,40,9.60
2015,04,10,10,41,9.60
2015,04,10,10,42,9.60
2015,04,10,10,43,9.60
2015,04,10,10,44,9.60
2015,04,10,10,45,9.70
2015,04,10,10,46,9.70
2015,04,10,10,47,9.70
2015,04,10,10,48,9.80
2015,04,10,10,49,9.80
2015,04,10,10,50,9.90
2015,04,10,10,51,9.90
2015,04,10,10,52,9.90
2015,04,10,10,53,9.90
2015,04,10,10,54,9.90
2015,04,10,10,55,9.90
2015,04,10,10,56,9.90
2015,04,10,10,57,9.90
2015,04,10,10,58,9.90
2015,04,10,10,59,9.90
2015,04,10,11,00,9.90
2015,04,10,11,01,9.90
2015,04,10,11,02,9.90
2015,04,10,11,03,9.90
2015,04,10,11,04,9.90
2015,04,10,11,05,9.90
2015,04,10,11,06,9.90
2015,04,10,11,07,9.90
2015,04,10,11,08,9.90
2015,04,10,11,09,9.90
2015,04,10,11,10,9.90
2015,04,10,11,11,9.90
2015,04,10,11,12,9.90
2015,04,10,11,13,9.90
2015,04,10,11,14,10.00
2015,04,10,11,15,10.00
2015,04,10,11,16,10.00
2015,04,10,11,17,10.00
2015,04,10,11,18,10.00
2015,04,10,11,19,10.00
2015,04,10,11,20,10.00
2015,04,10,11,21,10.00
2015,04,10,11,22,10.00
2015,04,10,11,23,10.10
2015,04,10,11,24,10.10
2015,04,10,11,25,10.10
2015,04,10,11,26,10.10
2015,04,10,11,27,10.20
2015,04,10,11,28,10.20
2015,04,10,11,29,10.20
2015,04,10,11,30,10.20
2015,04,10,11,31,10.20
2015,04,10,11,32,10.20
2015,04,10,11,33,10.20
2015,04,10,11,34,10.20
2015,04,10,11,35,10.20
2015,04,10,11,36,10.30
2015,04,10,11,37,10.30
2015,04,10,11,38,10.20
2015,04,10,11,39,10.20
2015,04,10,11,40,10.20
2015,04,10,11,41,10.20
2015,04,10,11,42,10.20
2015,04,10,11,43,10.20
2015,04,10,11,44,10.20
2015,04,10,11,45,10.20
2015,04,10,11,46,10.20
2015,04,10,11,47,10.20
2015,04,10,11,48,10.20
2015,04,10,11,49,10.20
2015,04,10,11,50,10.20
2015,04,10,11,51,10.10
2015,04,10,11,52,10.10
2015,04,10,11,53,10.10
2015,04,10,11,54,10.10
2015,04,10,11,55,10.10
2015,04,10,11,56,10.10
2015,04,10,11,57,10.10
2015,04,10,11,58,10.10
2015,04,10,11,59,10.10
2015,04,10,12,00,10.10
2015,04,10,12,01,10.10
2015,04,10,12,02,10.10
2015,04,10,12,03,10.00
2015,04,10,12,04,10.00
2015,04,10,12,05,10.00
2015,04,10,12,06,10.00
2015,04,10,12,07,10.00
2015,04,10,12,08,10.00
2015,04,10,12,09,10.00
2015,04,10,12,10,10.00
2015,04,10,12,11,10.00
2015,04,10,12,12,10.00
2015,04,10,12,13,10.00
2015,04,10,12,14,10.00
2015,04,10,12,15,10.10
2015,04,10,12,16,10.10
2015,04,10,12,17,10.10
2015,04,10,12,18,10.10
2015,04,10,12,19,10.20
2015,04,10,12,20,10.20
2015,04,10,12,21,10.20
2015,04,10,12,22,10.20
2015,04,10,12,23,10.20
2015,04,10,12,24,10.20
2015,04,10,12,25,10.20
2015,04,10,12,26,10.20
2015,04,10,12,27,10.30
2015,04,10,12,28,10.30
2015,04,10,12,29,10.30
2015,04,10,12,30,10.30
2015,04,10,12,31,10.30
2015,04,10,12,32,10.30
2015,04,10,12,33,10.40
2015,04,10,12,34,10.30
2015,04,10,12,35,10.40
2015,04,10,12,36,10.40
2015,04,10,12,37,10.40
2015,04,10,12,38,10.40
2015,04,10,12,39,10.40
2015,04,10,12,40,10.50
2015,04,10,12,41,10.50
2015,04,10,12,42,10.50
2015,04,10,12,43,10.60
2015,04,10,12,44,10.60
2015,04,10,12,45,10.60
2015,04,10,12,46,10.60
2015,04,10,12,47,10.60
2015,04,10,12,48,10.60
2015,04,10,12,49,10.60
2015,04,10,12,50,10.60
2015,04,10,12,51,10.60
2015,04,10,12,52,10.60
2015,04,10,12,53,10.60
2015,04,10,12,54,10.60
2015,04,10,12,55,10.70
2015,04,10,12,56,10.70
2015,04,10,12,57,10.70
2015,04,10,12,58,10.70
2015,04,10,12,59,10.70
2015,04,10,13,00,10.70
2015,04,10,13,01,10.70
2015,04,10,13,02,10.70
2015,04,10,13,03,10.70
2015,04,10,13,04,10.70
2015,04,10,13,05,10.70
2015,04,10,13,06,10.70
2015,04,10,13,07,10.70
2015,04,10,13,08,10.70
2015,04,10,13,09,10.60
2015,04,10,13,10,10.60
2015,04,10,13,11,10.60
2015,04,10,13,12,10.70
2015,04,10,13,13,10.70
2015,04,10,13,14,10.70
2015,04,10,13,15,10.70
2015,04,10,13,16,10.70
2015,04,10,13,17,10.70
2015,04,10,13,18,10.70
2015,04,10,13,19,10.70
2015,04,10,13,20,10.70
2015,04,10,13,21,10.70
2015,04,10,13,22,10.70
2015,04,10,13,23,10.60
2015,04,10,13,24,10.60
2015,04,10,13,25,10.60
2015,04,10,13,26,10.60
2015,04,10,13,27,10.60
2015,04,10,13,28,10.50
2015,04,10,13,29,10.50
2015,04,10,13,30,10.50
2015,04,10,13,31,10.40
2015,04,10,13,32,10.40
2015,04,10,13,33,10.40
2015,04,10,13,34,10.40
2015,04,10,13,35,10.40
2015,04,10,13,36,10.40
2015,04,10,13,37,10.40
2015,04,10,13,38,10.30
2015,04,10,13,39,10.30
2015,04,10,13,40,10.30
2015,04,10,13,41,10.30
2015,04,10,13,42,10.20
2015,04,10,13,43,10.20
2015,04,10,13,44,10.20
2015,04,10,13,45,10.20
2015,04,10,13,46,10.20
2015,04,10,13,47,10.20
2015,04,10,13,48,10.20
2015,04,10,13,49,10.20
2015,04,10,13,50,10.20
2015,04,10,13,51,10.20
2015,04,10,13,52,10.20
2015,04,10,13,53,10.10
2015,04,10,13,54,10.10
2015,04,10,13,55,10.10
2015,04,10,13,56,10.10
2015,04,10,13,57,10.10
2015,04,10,13,58,10.10
2015,04,10,13,59,10.10
2015,04,10,14,00,10.10
2015,04,10,14,01,10.10
2015,04,10,14,02,10.00
2015,04,10,14,03,10.00
2015,04,10,14,04,10.00
2015,04,10,14,05,10.00
2015,04,10,14,06,10.00
2015,04,10,14,07,9.90
2015,04,10,14,08,9.90
2015,04,10,14,09,9.90
2015,04,10,14,10,9.90
2015,04,10,14,11,9.90
2015,04,10,14,12,9.90
2015,04,10,14,13,9.90
2015,04,10,14,14,9.90
2015,04,10,14,15,9.90
2015,04,10,14,16,9.90
2015,04,10,14,17,9.90
2015,04,10,14,18,9.80
2015,04,10,14,19,9.80
2015,04,10,14,20,9.80
2015,04,10,14,21,9.80
2015,04,10,14,22,9.80
2015,04,10,14,23,9.80
2015,04,10,14,24,9.80
2015,04,10,14,25,9.80
2015,04,10,14,26,9.80
2015,04,10,14,27,9.80
2015,04,10,14,28,9.80
2015,04,10,14,29,9.80
2015,04,10,14,30,9.90
2015,04,10,14,31,9.90
2015,04,10,14,32,9.90
2015,04,10,14,33,9.90
2015,04,10,14,34,9.90
2015,04,10,14,35,9.90
2015,04,10,14,36,10.00
2015,04,10,14,37,10.00
2015,04,10,14,38,10.10
2015,04,10,14,39,10.10
2015,04,10,14,40,10.10
2015,04,10,14,41,10.10
2015,04,10,14,42,10.10
2015,04,10,14,43,10.10
2015,04,10,14,44,10.10
2015,04,10,14,45,10.10
2015,04,10,14,46,10.10
2015,04,10,14,47,10.10
2015,04,10,14,48,10.10
2015,04,10,14,49,10.10
2015,04,10,14,50,10.10
2015,04,10,14,51,10.20
2015,04,10,14,52,10.20
2015,04,10,14,53,10.20
2015,04,10,14,54,10.20
2015,04,10,14,55,10.20
2015,04,10,14,56,10.20
2015,04,10,14,57,10.20
2015,04,10,14,58,10.20
2015,04,10,14,59,10.30
2015,04,10,15,00,10.30
2015,04,10,15,01,10.30
2015,04,10,15,02,10.30
2015,04,10,15,03,10.40
2015,04,10,15,04,10.40
2015,04,10,15,05,10.40
2015,04,10,15,06,10.40
2015,04,10,15,07,10.40
2015,04,10,15,08,10.40
2015,04,10,15,09,10.40
2015,04,10,15,10,10.40
2015,04,10,15,11,10.40
2015,04,10,15,12,10.40
2015,04,10,15,13,10.40
2015,04,10,15,14,10.50
2015,04,10,15,15,10.50
2015,04,10,15,16,10.60
2015,04,10,15,17,10.60
2015,04,10,15,18,10.60
2015,04,10,15,19,10.60
2015,04,10,15,20,10.70
2015,04,10,15,21,10.70
2015,04,10,15,22,10.70
2015,04,10,15,23,10.80
2015,04,10,15,24,10.80
2015,04,10,15,25,10.80
2015,04,10,15,26,10.80
2015,04,10,15,27,10.90
2015,04,10,15,28,10.90
2015,04,10,15,29,11.00
2015,04,10,15,30,11.00
2015,04,10,15,31,11.10
2015,04,10,15,32,11.10
2015,04,10,15,33,11.10
2015,04,10,15,34,11.10
2015,04,10,15,35,11.20
2015,04,10,15,36,11.20
2015,04,10,15,37,11.20
2015,04,10,15,38,11.20
2015,04,10,15,39,11.10
2015,04,10,15,40,11.10
2015,04,10,15,41,11.10
2015,04,10,15,42,11.00
2015,04,10,15,43,11.00
2015,04,10,15,44,11.00
2015,04,10,15,45,11.00
2015,04,10,15,46,11.00
2015,04,10,15,47,11.10
2015,04,10,15,48,11.10
2015,04,10,15,49,11.10
2015,04,10,15,50,11.10
2015,04,10,15,51,11.20
2015,04,10,15,52,11.20
2015,04,10,15,53,11.20
2015,04,10,15,54,11.20
2015,04,10,15,55,11.30
2015,04,10,15,56,11.30
2015,04,10,15,57,11.30
2015,04,10,15,58,11.30
2015,04,10,15,59,11.30
2015,04,10,16,00,11.30
2015,04,10,16,01,11.30
2015,04,10,16,02,11.30
2015,04,10,16,03,11.30
2015,04,10,16,04,11.30
2015,04,10,16,05,11.20
2015,04,10,16,06,11.10
2015,04,10,16,07,11.00
2015,04,10,16,08,10.90
2015,04,10,16,09,10.90
2015,04,10,16,10,10.80
2015,04,10,16,11,10.80
2015,04,10,16,12,10.80
2015,04,10,16,13,10.80
2015,04,10,16,14,10.70
2015,04,10,16,15,10.60
2015,04,10,16,16,10.50
2015,04,10,16,17,10.40
2015,04,10,16,18,10.30
2015,04,10,16,19,10.20
2015,04,10,16,20,10.20
2015,04,10,16,21,10.10
2015,04,10,16,22,10.00
2015,04,10,16,23,10.00
2015,04,10,16,24,9.90
2015,04,10,16,25,9.90
2015,04,10,16,26,9.80
2015,04,10,16,27,9.80
2015,04,10,16,28,9.80
2015,04,10,16,29,9.70
2015,04,10,16,30,9.60
2015,04,10,16,31,9.60
2015,04,10,16,32,9.50
2015,04,10,16,33,9.40
2015,04,10,16,34,9.30
2015,04,10,16,35,9.20
2015,04,10,16,36,9.20
2015,04,10,16,37,9.10
2015,04,10,16,38,9.00
2015,04,10,16,39,9.00
2015,04,10,16,40,8.90
2015,04,10,16,41,8.90
2015,04,10,16,42,8.80
2015,04,10,16,43,8.80
2015,04,10,16,44,8.70
2015,04,10,16,45,8.70
2015,04,10,16,46,8.60
2015,04,10,16,47,8.60
2015,04,10,16,48,8.60
2015,04,10,16,49,8.50
2015,04,10,16,50,8.50
2015,04,10,16,51,8.40
2015,04,10,16,52,8.30
2015,04,10,16,53,8.30
2015,04,10,16,54,8.30
2015,04,10,16,55,8.20
2015,04,10,16,56,8.20
2015,04,10,16,57,8.20
2015,04,10,16,58,8.10
2015,04,10,16,59,8.10
2015,04,10,17,00,8.10
2015,04,10,17,01,8.00
2015,04,10,17,02,8.00
2015,04,10,17,03,7.90
2015,04,10,17,04,7.90
2015,04,10,17,05,7.90
2015,04,10,17,06,7.90
2015,04,10,17,07,7.80
2015,04,10,17,08,7.80
2015,04,10,17,09,7.80
2015,04,10,17,10,7.80
2015,04,10,17,11,7.80
2015,04,10,17,12,7.70
2015,04,10,17,13,7.70
2015,04,10,17,14,7.70
2015,04,10,17,15,7.70
2015,04,10,17,16,7.70
2015,04,10,17,17,7.70
2015,04,10,17,18,7.70
2015,04,10,17,19,7.70
2015,04,10,17,20,7.60
2015,04,10,17,21,7.60
2015,04,10,17,22,7.60
2015,04,10,17,23,7.60
2015,04,10,17,24,7.60
2015,04,10,17,25,7.60
2015,04,10,17,26,7.60
2015,04,10,17,27,7.60
2015,04,10,17,28,7.60
2015,04,10,17,29,7.60
2015,04,10,17,30,7.60
2015,04,10,17,31,7.60
2015,04,10,17,32,7.50
2015,04,10,17,33,7.50
2015,04,10,17,34,7.50
2015,04,10,17,35,7.50
2015,04,10,17,36,7.50
2015,04,10,17,37,7.50
2015,04,10,17,38,7.50
2015,04,10,17,39,7.50
2015,04,10,17,40,7.50
2015,04,10,17,41,7.50
2015,04,10,17,42,7.50
2015,04,10,17,43,7.50
2015,04,10,17,44,7.50
2015,04,10,17,45,7.50
2015,04,10,17,46,7.50
2015,04,10,17,47,7.50
2015,04,10,17,48,7.50
2015,04,10,17,49,7.50
2015,04,10,17,50,7.60
2015,04,10,17,51,7.60
2015,04,10,17,52,7.70
2015,04,10,17,53,7.70